San Antonio, TX

10:03 PM CST on December 04, 2016 (GMT -0600)
San Antonio International

Weather History for KSAT - November, 2010

Change the Weather History Date:

Monday, November 8, 2010

  Actual Average Record
Temperature  
Mean Temperature 61 °F 64 °F  
Max Temperature 76 °F 75 °F 90 °F (1989)
Min Temperature 46 °F 53 °F 29 °F (1959)
Degree Days  
Heating Degree Days 4 4  
Month to date heating degree days 47 27  
Since 1 July heating degree days 59 60  
Cooling Degree Days 0 3  
Month to date cooling degree days 9 28  
Year to date cooling degree days 3050 3083  
Growing Degree Days 10 (Base 50)    
Moisture  
Dew Point 50 °F    
Average Humidity 69    
Maximum Humidity 100    
Minimum Humidity 38    
Precipitation  
Precipitation 0.00 in 0.08 in 1.79 in (1990)
Month to date precipitation 0.24 0.72  
Year to date precipitation 36.74 28.80  
Snow  
Snow 0.00 in - - ()
Month to date snowfall 0.0  
Since 1 July snowfall 0.0  
Since 1 September snowfall 0.0  
Snow Depth 0.00 in    
Sea Level Pressure  
Sea Level Pressure 30.05 in    
Wind  
Wind Speed 8 mph (South)    
Max Wind Speed 16 mph    
Max Gust Speed 23 mph    
Visibility 10 miles    
Events      
T = Trace of Precipitation, MM = Missing Value Source: NWS Daily Summary

Daily Weather History Graph

Daily Weather History Graph

Search for Another Location

Airport or City:

Trip Planner

Search our weather history database for the weather conditions in past years. The results will help you decide how hot, cold, wet, or windy it might be!

Date:

Astronomy

Nov. 08, 2010 Rise Set
Actual Time 6:52 AM CST 5:42 PM CST
Civil Twilight 6:27 AM CST 6:07 PM CST
Nautical Twilight 5:59 AM CST 6:35 PM CST
Astronomical Twilight 5:31 AM CST 7:03 PM CST
Moon 9:28 AM CST (11/8) 7:52 PM CST (11/8)
Length of Visible Light 11h 39m
Length of Day
10h 49m
Waxing Crescent, 8% of the Moon is Illuminated
Nov 8
Waxing Crescent
Nov 13
First Quarter
Nov 21
Full
Nov 28
Last Quarter
Dec 5
New

Hourly Weather History & Observations

Time (CST) Temp. Dew Point Humidity Pressure Visibility Wind Dir Wind Speed Gust Speed Precip Events Conditions
12:53 AM 54.0 °F 50.0 °F 86% 30.15 in 10.0 mi SSE 6.9 mph - N/A   Clear
1:53 AM 54.0 °F 50.0 °F 86% 30.13 in 10.0 mi South 5.8 mph - N/A   Clear
2:53 AM 54.0 °F 50.0 °F 86% 30.12 in 10.0 mi SSW 4.6 mph - N/A   Clear
3:53 AM 50.0 °F 48.0 °F 93% 30.12 in 10.0 mi Calm Calm - N/A   Clear
4:53 AM 46.9 °F 46.0 °F 97% 30.12 in 10.0 mi NW 4.6 mph - N/A   Clear
5:53 AM 46.9 °F 46.0 °F 97% 30.12 in 10.0 mi Calm Calm - N/A   Clear
6:53 AM 46.9 °F 46.0 °F 97% 30.12 in 10.0 mi Calm Calm - N/A   Clear
7:53 AM 51.1 °F 48.0 °F 89% 30.14 in 10.0 mi Calm Calm - N/A   Clear
8:53 AM 57.9 °F 52.0 °F 81% 30.14 in 10.0 mi Calm Calm - N/A   Clear
9:53 AM 64.9 °F 53.1 °F 65% 30.13 in 10.0 mi South 8.1 mph - N/A   Clear
10:53 AM 69.1 °F 54.0 °F 58% 30.11 in 10.0 mi South 11.5 mph - N/A   Partly Cloudy
11:53 AM 71.1 °F 52.0 °F 51% 30.07 in 10.0 mi South 16.1 mph - N/A   Partly Cloudy
12:53 PM 73.0 °F 51.1 °F 46% 30.03 in 10.0 mi South 11.5 mph - N/A   Partly Cloudy
1:53 PM 75.0 °F 51.1 °F 43% 30.00 in 10.0 mi SSE 11.5 mph 19.6 mph N/A   Clear
2:53 PM 73.9 °F 48.9 °F 41% 29.97 in 10.0 mi South 10.4 mph - N/A   Clear
3:53 PM 75.0 °F 48.9 °F 40% 29.96 in 10.0 mi South 12.7 mph - N/A   Clear
4:53 PM 73.0 °F 48.9 °F 42% 29.95 in 10.0 mi SSE 12.7 mph - N/A   Partly Cloudy
5:53 PM 69.1 °F 50.0 °F 51% 29.95 in 10.0 mi SSE 6.9 mph - N/A   Partly Cloudy
6:53 PM 66.9 °F 48.9 °F 52% 29.96 in 10.0 mi SSE 9.2 mph - N/A   Partly Cloudy
7:53 PM 60.1 °F 48.9 °F 67% 29.96 in 10.0 mi SE 8.1 mph - N/A   Partly Cloudy
8:53 PM 64.0 °F 53.1 °F 67% 29.96 in 10.0 mi SSE 12.7 mph - N/A   Partly Cloudy
9:53 PM 62.1 °F 55.0 °F 78% 29.96 in 10.0 mi SSE 11.5 mph - N/A   Partly Cloudy
10:53 PM 62.1 °F 55.9 °F 80% 29.96 in 10.0 mi SSE 9.2 mph - N/A   Clear
11:53 PM 60.1 °F 55.0 °F 83% 29.95 in 10.0 mi SSE 6.9 mph - N/A   Clear